Location: Balaclava NSW 2575, Australia
(34.4510°S, 150.4953°E)
Time: 18:50:30
(UTC+10:00)

Vanguard 2 - Pass Details

Date: 23 June 2021
Orbit: 552 x 2937 km, 32.9° (Epoch: 24 July)

Event Time Altitude Azimuth Distance (km) Brightness Sun altitude
Rises 03:10:27 0° 328° (NNW) 2,881 - -47.3°
Reaches altitude 10° 03:12:51 10° 343° (NNW) 2,132 - -46.8°
Maximum altitude 03:16:44 24° 37° (NE) 1,693 - -46.0°
Exits shadow 03:19:24 18° 71° (ENE) 2,187 10.2 -45.5°
Drops below altitude 10° 03:22:03 10° 87° (E) 2,995 11.1 -45.0°
Sets 03:26:08 0° 99° (E) 4,400 12.2 -44.1°
